SL-16 DEB, 27690

Orbit data source: Space-Track

SL-16 DEB, 27690 is space debris in SSO originally from a launch on Mon, 10 Dec 2001 UTC launched from the Tyuratam Missile And Space Complex (TTMTR). Debris objects in space refer to the collection of defunct objects orbiting the Earth. Examples of debris include non-operational satellites, rocket bodies, and fragments generated from explosions, collisions, or faulty payload assembly.

Loading next visibility...
Identifier
27690, 2001-056J
Orbit
SSO
Last TLE update
15 hours ago
Origin
Manufacturer
Yuzhnoe
Mission
Spacecraft
Bus & Motor
SEP MOTOR COVER, Unknown motor
Mass
~1 kg wet, ~1 kg dry
Launch date (UTC)
2001-12-10 (24 years ago)
Launch vehicle
Unknown
Launch site
Tyuratam Missile And Space Complex (TTMTR)
Object type
Payload
Rocket body
Debris
Shape & HBR
Cone, 1 m
Radar Cross Section
0.635 m², Small (<0.1 m²)

Expand to show TLE details & history

TLE from 15 hours ago
0 SL-16 DEB
1 27690U 01056J   25183.88912135 -.00000025  00000-0  41841-4 0  9992
2 27690 100.4252  44.5894 0182587 334.4308  37.1400 13.31049345144018
Epoch: 2025-07-02T21:20Z
TLE epoch observation values (Epoch: 2025-07-02T21:20:20.084Z)
Latitude
12.60539°
Longitude
160.99611°
Altitude
1,036.24 km
Speed
7.387 km/s
True Right ascension
02h 48m 58s
True Declination
12° 32' 06"
Sunlit
Object was in daylight at epoch
Visualization orbit readout
Latitude
63.60794°
Longitude
5.62065°
Altitude
1,260.151 km
Speed
7.18 km/s
Apparent Right ascension
13h 48m 44s
Apparent Declination
21° 24' 37"
Sunlit
Object is in daylight
Visualization observer readout
Local Sidereal Time
00:03:25
Azimuth
333.14° NNW
Elevation
-23.937°
Doppler factor
1
Orbital elements
Apogee altitude
1,277.446 km
Perigee altitude
1,002.897 km
Semi-major axis
7,518.309 km
Eccentricity
0.01826
Inclination
100.4252°
RAAN
44.5894°
Arg. of periapsis
334.4308°
True anomaly
Unknown
Mean anomaly
37.14°
Eccentric anomaly
Unknown
Mean motion
3.32938 °/min
Orbital period
108.13 mins
BSTAR
0.000041841
Loading maneuver chart data...
Loading SW <> Apogee altitude chart data...
Loading historical data...
Loading historical data...
Loading historical data...
Loading historical data...
Loading historical data...
Loading historical data...
Loading historical data...

SL-16 DEB Visibility forecast

Observer location: undefined°, undefined°

Span
Click to sort rows by Start time (UTC) header in descending order
Start Az.
Max El. time (UTC)
Max El. Az.
Max El.
End time (UTC)
End Az.
11 mins2025-07-03 13:38:47.104Z124.287° SE2025-07-03 13:43:47.104Z64.515° ENE31.053°2025-07-03 13:49:47.104Z0.363° NNE
10 mins2025-07-03 15:25:47.104Z202.306° SSW2025-07-03 15:30:47.104Z271.913° WNW31.251°2025-07-03 15:35:47.104Z325.67° NNW
12 mins2025-07-04 02:45:47.104Z38.486° NE2025-07-04 02:50:47.104Z91.483° ESE31.294°2025-07-04 02:57:47.104Z162.627° S
12 mins2025-07-04 04:31:47.104Z0.005° NNE2025-07-04 04:37:47.104Z291.397° WNW35.446°2025-07-04 04:43:47.104Z228.155° WSW
|